Wind_Speed
37 35 34 34 33 33 31 30 27 25 26 28 26 23 22 23 25 28 29 29 28 28 26 24 24 24 25 27 29 30 31 32 33 34 34 34 34 34
41 39 37 36 35 34 33 31 29 26 25 26 26 24 22 22 24 27 28 29 28 27 26 25 25 26 27 28 29 29 29 30 32 33 34 34 34 34
45 43 41 39 36 35 33 32 31 28 25 25 26 24 22 21 23 26 28 29 28 28 27 27 27 27 27 28 28 28 29 30 31 31 32 33 33 33
48 46 44 41 39 37 35 33 32 29 26 25 25 24 22 21 22 24 26 28 28 28 28 28 28 27 28 28 29 30 30 30 30 31 32 32 33 33
49 47 46 43 40 38 36 34 33 30 27 26 25 24 22 21 22 23 25 27 28 29 29 29 28 28 28 28 29 31 31 31 31 30 30 31 31 32
50 48 46 44 41 39 37 35 33 30 28 26 24 23 22 21 21 22 24 25 27 28 28 28 28 27 27 28 28 29 29 29 29 29 30 30 30 31
52 49 46 44 41 39 38 36 34 31 28 26 24 22 21 20 20 20 21 23 24 25 26 26 26 27 27 26 26 27 27 27 28 28 28 28 29 29
55 51 47 45 42 40 38 35 33 31 28 25 24 22 20 19 18 19 19 21 23 23 23 24 24 24 25 24 24 25 25 25 25 25 26 26 27 28
59 54 49 46 44 41 38 35 33 30 28 25 23 22 20 19 18 18 19 20 21 21 22 22 22 21 22 23 22 22 22 22 21 22 22 23 24 24
59 57 53 48 45 42 39 36 33 30 27 25 23 21 20 19 19 18 19 20 20 20 20 21 20 20 20 20 19 18 19 19 19 19 19 20 20 20
55 56 54 50 46 43 40 36 33 30 26 24 22 21 20 19 18 18 18 17 17 18 18 18 18 18 17 17 17 16 17 17 16 15 15 14 14 14
49 51 51 50 47 44 40 36 33 29 25 23 21 20 19 18 17 17 18 18 18 17 17 16 16 17 17 16 16 16 16 15 14 13 13 12 11 11
43 45 47 48 46 44 40 36 32 28 25 22 21 19 19 18 17 17 18 19 19 17 17 17 17 17 16 16 15 15 15 14 13 13 12 11 10 10
41 43 44 45 45 43 40 36 32 28 25 22 21 20 19 18 19 18 18 18 19 19 18 18 17 17 17 16 16 16 15 14 13 12 12 11 10 10
41 43 44 43 43 42 39 35 31 27 24 22 21 19 18 18 19 19 18 19 20 20 19 18 18 17 17 17 16 16 15 14 13 12 11 10 10 10
41 45 46 43 41 40 37 34 30 27 24 22 20 19 18 18 18 18 18 18 19 20 19 19 19 18 18 17 16 15 14 13 12 11 11 11 11 11
40 47 46 43 41 38 36 32 29 26 24 22 20 19 18 19 20 20 19 19 20 20 20 20 19 19 18 16 15 14 13 13 12 12 12 12 13 14
40 45 44 41 39 36 33 30 28 26 25 22 21 20 20 20 20 20 21 21 21 21 21 20 19 18 17 16 15 14 13 13 13 13 14 16 17 19
41 42 43 40 37 34 32 30 28 26 25 23 23 23 22 22 22 22 22 22 21 21 21 21 20 19 17 16 15 15 15 15 15 17 18 20 21 23
40 41 41 39 37 34 32 31 29 27 25 25 25 24 24 23 23 23 22 22 22 21 21 21 20 19 17 17 16 17 17 18 19 20 22 23 25 26
39 39 39 38 35 33 32 31 29 28 27 26 26 25 24 24 24 23 22 22 22 21 21 20 19 19 18 18 19 19 20 21 22 24 25 27 28 29
39 38 38 37 35 33 32 30 29 28 27 27 26 26 25 24 23 22 22 21 21 21 20 20 20 20 20 20 21 21 23 24 25 27 28 30 31 32
37 37 36 35 33 32 31 30 29 28 28 27 26 25 24 23 22 22 21 21 20 20 20 20 20 20 21 22 23 24 25 26 28 29 30 31 32 34
Wind_Direction
263 264 267 269 272 275 279 283 285 288 291 294 293 287 277 265 254 247 243 241 238 238 240 241 240 239 239 239 240 239 240 242 242 244 245 247 249 250
261 262 264 267 269 272 275 280 283 285 288 290 291 288 278 266 254 246 242 239 237 236 237 237 239 240 242 243 239 238 241 242 244 245 246 248 249 251
257 260 262 264 265 268 271 276 280 282 286 287 287 287 279 266 255 246 241 238 236 236 237 237 239 241 241 241 240 241 244 245 245 247 247 248 249 250
255 256 258 261 262 263 266 271 275 278 282 285 284 284 278 267 257 247 241 238 236 235 236 237 240 243 243 243 244 245 245 246 246 248 248 248 248 247
252 253 254 257 258 259 261 266 269 273 277 282 282 281 277 266 256 246 241 238 236 236 237 239 242 244 245 246 247 247 247 248 248 249 249 250 249 248
250 250 251 252 254 255 257 261 264 267 272 276 279 277 275 264 254 247 241 238 237 237 238 240 242 244 246 247 246 247 247 247 249 250 251 250 248 247
246 247 247 247 249 250 253 256 259 262 267 271 273 274 272 262 253 246 241 236 236 238 239 241 242 244 246 246 246 246 246 247 248 249 249 247 245 245
242 243 243 243 244 246 249 252 254 257 262 265 267 270 266 259 250 244 241 238 236 236 239 241 242 242 243 242 243 244 243 244 245 244 244 243 243 244
239 238 239 239 240 242 244 245 248 253 258 261 263 265 261 252 247 244 241 240 237 238 240 239 239 239 240 238 239 239 238 239 239 238 238 238 239 240
236 235 235 235 236 238 238 239 243 249 253 255 256 258 257 250 245 243 241 239 237 237 238 239 238 238 237 234 230 232 232 233 232 233 233 232 233 234
232 230 230 231 232 233 232 234 239 244 249 250 251 252 250 245 243 239 238 237 236 235 235 235 231 229 229 228 227 226 225 223 220 219 218 219 222 226
226 223 223 224 226 227 227 230 233 238 241 243 245 245 243 240 238 234 233 233 229 226 226 226 226 224 222 221 216 211 209 205 204 205 206 208 212 217
216 214 214 216 219 221 223 225 228 232 235 237 238 238 236 234 233 230 229 225 222 224 224 222 218 212 210 208 204 199 196 197 199 201 203 207 213 220
206 203 204 209 212 216 217 219 222 226 229 232 232 232 230 229 229 225 221 218 219 220 218 212 208 205 202 198 194 191 192 197 201 203 206 213 220 228
198 193 194 199 205 209 211 214 217 220 223 225 226 224 222 221 220 218 216 213 216 214 209 202 198 194 191 190 191 192 195 199 203 209 217 225 232 239
194 187 187 193 198 203 206 208 211 213 216 217 217 214 213 213 211 209 207 207 206 202 198 194 190 188 189 191 194 196 201 206 212 221 230 237 245 254
194 186 184 188 193 197 199 202 205 208 209 208 207 204 204 204 203 201 199 197 194 191 190 188 187 187 190 195 199 203 210 218 227 238 247 255 261 267
191 181 178 181 186 190 193 196 198 200 201 201 199 197 198 197 196 194 191 188 187 187 189 188 189 192 197 202 209 216 223 232 242 252 259 265 270 274
185 177 175 177 179 183 185 188 190 194 195 194 193 192 191 191 190 187 185 185 187 189 190 191 195 200 206 213 220 228 237 245 253 262 268 271 274 277
177 172 171 173 175 177 179 182 184 186 187 187 186 185 184 184 184 184 185 187 190 192 195 198 203 209 217 225 233 240 247 254 260 266 270 274 277 280
169 167 169 170 171 173 175 177 178 179 181 181 181 181 181 181 183 185 188 191 195 198 202 207 213 220 228 236 243 250 256 262 267 271 274 277 280 282
166 166 168 168 168 170 172 174 174 176 178 178 179 179 180 181 185 189 192 197 201 205 210 216 223 230 238 245 252 259 264 268 273 276 278 280 283 284
162 163 164 165 166 168 170 171 171 173 174 176 177 179 181 185 189 193 198 203 208 213 219 225 232 239 246 253 259 264 268 272 276 279 281 283 286 287
Height
5762 5763 5765 5766 5767 5767 5768 5768 5768 5767 5764 5760 5757 5756 5755 5754 5754 5756 5758 5761 5764 5767 5769 5772 5775 5778 5781 5784 5786 5790 5793 5796 5799 5802 5805 5808 5811 5813
5751 5753 5755 5756 5758 5759 5759 5759 5759 5759 5758 5754 5751 5749 5748 5747 5748 5749 5752 5754 5758 5761 5764 5766 5769 5772 5774 5777 5780 5783 5786 5789 5792 5794 5797 5800 5803 5805
5739 5741 5744 5746 5748 5749 5750 5751 5750 5750 5750 5748 5745 5743 5742 5741 5741 5743 5745 5748 5751 5754 5757 5760 5763 5765 5767 5770 5773 5775 5778 5781 5784 5787 5789 5792 5794 5796
5725 5729 5732 5735 5738 5740 5741 5742 5742 5742 5743 5741 5739 5737 5736 5735 5735 5736 5739 5741 5744 5747 5750 5753 5756 5758 5761 5763 5766 5768 5771 5773 5776 5779 5781 5783 5785 5787
5711 5715 5720 5724 5727 5730 5732 5734 5734 5735 5735 5734 5733 5731 5729 5729 5729 5730 5732 5735 5738 5741 5744 5746 5749 5751 5754 5756 5758 5761 5763 5766 5768 5770 5772 5774 5776 5778
5696 5702 5707 5712 5716 5719 5722 5724 5726 5727 5727 5727 5726 5725 5723 5723 5723 5724 5726 5729 5731 5734 5737 5740 5742 5744 5747 5749 5751 5753 5755 5758 5760 5762 5764 5766 5767 5769
5681 5687 5693 5699 5704 5708 5712 5714 5716 5718 5719 5720 5719 5718 5717 5717 5718 5719 5720 5723 5725 5728 5730 5733 5735 5738 5740 5742 5744 5746 5748 5750 5752 5754 5755 5757 5759 5761
5664 5672 5679 5686 5691 5697 5701 5704 5707 5710 5711 5712 5713 5712 5712 5711 5712 5713 5715 5717 5719 5722 5724 5726 5729 5731 5733 5735 5737 5739 5741 5743 5744 5746 5748 5750 5752 5754
5646 5656 5664 5672 5679 5685 5690 5694 5698 5701 5704 5705 5706 5706 5706 5706 5707 5708 5710 5712 5714 5716 5718 5720 5723 5725 5727 5729 5731 5733 5734 5736 5738 5739 5741 5743 5745 5746
5627 5639 5649 5658 5666 5673 5679 5685 5689 5693 5695 5697 5699 5699 5700 5700 5701 5703 5704 5706 5708 5710 5712 5715 5717 5719 5721 5723 5725 5727 5729 5730 5732 5734 5735 5737 5739 5740
5610 5621 5633 5644 5654 5662 5669 5675 5680 5684 5687 5690 5691 5692 5693 5694 5696 5697 5699 5700 5702 5704 5707 5709 5711 5714 5716 5718 5720 5722 5724 5726 5728 5729 5731 5732 5734 5736
5595 5606 5619 5630 5640 5649 5658 5665 5671 5676 5680 5683 5684 5686 5687 5688 5690 5691 5694 5696 5697 5700 5702 5705 5707 5710 5712 5714 5716 5718 5721 5723 5725 5726 5728 5730 5731 5732
5581 5593 5605 5617 5628 5638 5648 5656 5662 5668 5672 5675 5678 5680 5681 5683 5685 5687 5689 5691 5694 5696 5699 5701 5703 5706 5709 5711 5713 5716 5718 5721 5723 5724 5726 5727 5729 5730
5571 5582 5594 5606 5617 5628 5638 5647 5654 5660 5665 5669 5671 5674 5676 5678 5680 5682 5684 5687 5690 5693 5695 5698 5701 5704 5706 5709 5712 5714 5717 5719 5721 5722 5724 5725 5726 5727
5562 5573 5584 5597 5608 5619 5629 5638 5646 5652 5658 5662 5665 5668 5671 5673 5676 5678 5680 5683 5687 5689 5692 5695 5698 5701 5704 5707 5710 5713 5715 5717 5719 5720 5721 5722 5723 5724
5553 5564 5576 5588 5600 5611 5622 5631 5639 5646 5651 5656 5660 5663 5666 5669 5672 5675 5677 5680 5684 5687 5690 5693 5697 5700 5703 5706 5709 5711 5713 5715 5716 5718 5719 5719 5720 5720
5547 5557 5569 5582 5594 5605 5615 5625 5633 5640 5645 5650 5655 5658 5662 5665 5668 5672 5675 5678 5682 5685 5689 5692 5696 5699 5702 5705 5707 5709 5711 5712 5713 5714 5715 5716 5716 5716
5543 5554 5566 5579 5591 5601 5611 5620 5628 5635 5640 5645 5650 5654 5658 5662 5666 5669 5673 5677 5680 5684 5688 5691 5694 5698 5701 5703 5705 5706 5708 5709 5710 5711 5711 5711 5711 5711
5542 5553 5565 5577 5589 5599 5608 5616 5624 5630 5636 5641 5646 5651 5655 5659 5663 5667 5671 5675 5679 5683 5687 5690 5693 5696 5698 5700 5702 5704 5705 5705 5706 5706 5706 5706 5705 5705
5544 5555 5566 5577 5587 5597 5605 5613 5620 5627 5633 5638 5643 5648 5653 5657 5662 5666 5670 5674 5678 5682 5685 5688 5691 5693 5695 5697 5698 5700 5700 5701 5701 5701 5700 5699 5699 5697
5547 5557 5568 5578 5587 5596 5604 5611 5618 5625 5631 5636 5642 5647 5651 5656 5660 5665 5669 5673 5676 5680 5683 5685 5688 5690 5691 5693 5694 5694 5695 5695 5695 5694 5693 5692 5690 5689
5551 5560 5570 5579 5588 5596 5604 5611 5618 5624 5630 5635 5641 5646 5650 5655 5659 5663 5667 5671 5674 5677 5680 5682 5684 5686 5687 5688 5688 5689 5688 5688 5687 5686 5684 5683 5681 5679
5556 5565 5573 5582 5589 5597 5604 5611 5617 5624 5630 5635 5641 5645 5650 5654 5658 5662 5665 5668 5672 5674 5676 5678 5680 5681 5682 5682 5682 5682 5681 5680 5679 5677 5675 5673 5671 5668